K5SJT Weather Reports


time (UTC)temp
F
wind
direction
speed
knots
gust
knots
rain 1hr
in
rain 24hr
in
rain mn
in
humidity
%
barometer
mb
20260510044502 75 325 0.0 2.6 0.00 0.00 0.00 59 1006.3
20260510043001 76 200 0.0 2.6 0.00 0.00 0.00 59 1006.3
20260510041502 77 209 0.0 2.6 0.00 0.00 0.00 57 1006.3
20260510040002 78 196 0.0 2.6 0.00 0.00 0.00 54 1006.3
20260510034501 79 184 0.0 2.6 0.00 0.00 0.00 54 1006.3
20260510033001 79 153 0.9 3.5 0.00 0.00 0.00 54 1006.2
20260510031504 79 171 0.9 4.3 0.00 0.00 0.00 55 1006.0
20260510030002 79 188 0.0 4.3 0.00 0.00 0.00 56 1005.9
20260510024502 80 137 0.9 4.3 0.00 0.00 0.00 54 1005.7
20260510023003 81 147 0.9 3.5 0.00 0.00 0.00 51 1005.5
20260510021501 82 202 0.9 5.2 0.00 0.00 0.00 48 1005.3
20260510020004 83 182 0.9 4.3 0.00 0.00 0.00 45 1005.0
20260510014501 84 138 1.7 4.3 0.00 0.00 0.00 43 1005.0
20260510013001 85 151 0.9 4.3 0.00 0.00 0.00 41 1004.7
20260510011502 86 169 0.9 5.2 0.00 0.00 0.00 41 1004.7
20260510010001 87 176 0.9 2.6 0.00 0.00 0.00 38 1004.6
20260510004501 87 187 1.7 5.2 0.00 0.00 0.00 38 1004.5
20260510003002 88 195 0.9 3.5 0.00 0.00 0.00 38 1004.5
20260510001502 88 172 0.9 3.5 0.00 0.00 0.00 34 1004.4
20260510000002 88 269 0.9 3.5 0.00 0.00 0.00 36 1004.4
20260509234501 89 226 0.0 3.5 0.00 0.00 0.00 35 1004.2
20260509233006 90 251 1.7 5.2 0.00 0.00 0.00 32 1004.4
20260509231501 90 244 0.9 8.7 0.00 0.00 0.00 34 1004.5
20260509230001 90 306 0.9 5.2 0.00 0.00 0.00 31 1004.6
20260509224501 91 202 0.0 4.3 0.00 0.00 0.00 35 1004.7
20260509223005 90 187 1.7 7.0 0.00 0.00 0.00 34 1004.5
20260509221501 91 161 2.6 7.0 0.00 0.00 0.00 33 1004.6
20260509220001 90 268 1.7 7.0 0.00 0.00 0.00 39 1004.9
20260509214502 90 222 0.9 8.7 0.00 0.00 0.00 40 1005.0
20260509213002 91 228 1.7 6.1 0.00 0.00 0.00 34 1005.4
20260509211501 91 306 1.7 6.1 0.00 0.00 0.00 36 1005.6
20260509210010 89 156 1.7 4.3 0.00 0.00 0.00 39 1005.8
20260509204502 89 281 2.6 7.0 0.00 0.00 0.00 41 1005.9
20260509203001 89 213 1.7 7.0 0.00 0.00 0.00 41 1005.9
20260509201501 89 244 1.7 6.1 0.00 0.00 0.00 45 1006.2
20260509200003 89 132 1.7 6.1 0.00 0.00 0.00 45 1006.6
20260509194502 89 241 1.7 7.0 0.00 0.00 0.00 45 1006.8
20260509193001 88 296 2.6 7.0 0.00 0.00 0.00 44 1007.0
20260509191501 87 180 2.6 6.1 0.00 0.00 0.00 46 1007.2
20260509190006 87 167 0.0 7.8 0.00 0.00 0.00 52 1007.4
20260509184502 86 220 1.7 7.0 0.00 0.00 0.00 50 1007.6
20260509183002 86 165 1.7 6.1 0.00 0.00 0.00 50 1007.8
20260509181502 85 153 2.6 5.2 0.00 0.00 0.00 51 1008.1
20260509180002 84 242 0.9 6.1 0.00 0.00 0.00 58 1008.4
20260509174502 83 200 1.7 7.8 0.00 0.00 0.00 54 1008.6
20260509173002 82 184 1.7 6.1 0.00 0.00 0.00 61 1008.8
20260509171502 82 197 1.7 5.2 0.00 0.00 0.00 64 1008.8
20260509170003 80 306 1.7 5.2 0.00 0.00 0.00 64 1008.9
20260509164501 78 197 0.9 5.2 0.00 0.00 0.00 68 1009.0
20260509163121 78 183 1.7 6.1 0.00 0.00 0.00 65 1009.1
20260509163005 78 273 1.7 6.1 0.00 0.00 0.00 68 1009.1
20260509161501 76 199 2.6 5.2 0.00 0.00 0.00 70 1009.1
20260509160006 75 173 2.6 4.3 0.00 0.00 0.00 74 1009.1
20260509154502 75 184 0.9 3.5 0.00 0.00 0.00 74 1009.2
20260509153005 73 181 0.9 4.3 0.00 0.00 0.00 76 1009.4
20260509151606 71 231 0.9 3.5 0.00 0.00 0.00 81 1009.4
20260509150126 69 226 0.0 2.6 0.00 0.00 0.00 86 1009.9
20260509150001 68 191 0.0 2.6 0.00 0.00 0.00 85 1009.9
20260509144501 67 313 0.9 3.5 0.00 0.00 0.00 86 1010.0
20260509143101 67 267 0.0 2.6 0.00 0.00 0.00 87 1009.9
20260509141602 65 321 1.7 4.3 0.00 0.00 0.00 91 1009.7
20260509140004 64 332 0.9 3.5 0.00 0.00 0.00 91 1009.6
20260509134502 64 307 0.9 2.6 0.00 0.00 0.00 91 1009.7
20260509133002 64 315 1.7 4.3 0.00 0.00 0.00 89 1009.7
20260509131501 64 320 0.0 2.6 0.00 0.00 0.00 91 1009.4
20260509130107 62 340 0.0 0.9 0.00 0.00 0.00 91 1009.3
20260509130002 62 340 0.0 0.9 0.00 0.00 0.00 91 1009.3
20260509124617 61 340 0.0 0.0 0.00 0.00 0.00 92 1009.5
20260509124501 60 340 0.0 0.0 0.00 0.00 0.00 92 1009.5
20260509123002 60 340 0.0 0.9 0.00 0.00 0.00 91 1008.9
20260509121504 60 340 0.0 1.7 0.00 0.00 0.00 91 1008.8
20260509120108 60 336 0.0 1.7 0.00 0.00 0.00 91 1008.5
20260509120002 60 336 0.0 1.7 0.00 0.00 0.00 91 1008.4
20260509114606 60 274 0.0 1.7 0.00 0.00 0.00 91 1008.4
20260509113101 60 248 0.0 1.7 0.00 0.00 0.00 90 1008.3
20260509111600 60 207 0.0 1.7 0.00 0.00 0.00 90 1008.5
20260509111508 60 232 0.0 1.7 0.00 0.00 0.00 90 1008.4
20260509110001 60 291 0.0 2.6 0.00 0.00 0.00 90 1008.4
20260509104601 60 292 0.0 0.9 0.00 0.00 0.00 90 1008.5
20260509103100 61 146 0.0 0.0 0.00 0.00 0.00 90 1008.6
20260509101501 61 146 0.0 1.7 0.00 0.00 0.00 90 1008.9
20260509100105 61 165 0.9 2.6 0.00 0.00 0.00 89 1008.8
20260509100003 61 165 0.9 2.6 0.00 0.00 0.00 89 1008.8
20260509094600 61 165 0.0 1.7 0.00 0.00 0.00 89 1009.1
20260509094507 61 165 0.0 1.7 0.00 0.00 0.00 89 1009.2
20260509093101 62 165 0.0 1.7 0.00 0.00 0.00 89 1008.5
20260509091501 62 165 0.0 0.0 0.00 0.00 0.00 89 1008.6
20260509090108 62 165 0.0 0.0 0.00 0.00 0.00 89 1008.6
20260509090002 62 165 0.0 0.0 0.00 0.00 0.00 89 1008.7
20260509084501 62 165 0.0 1.7 0.00 0.00 0.00 89 1008.3
20260509083100 62 165 0.0 4.3 0.00 0.00 0.00 89 1008.1
20260509083001 63 165 0.9 4.3 0.00 0.00 0.00 89 1008.2
20260509081601 62 355 0.0 0.0 0.00 0.00 0.00 88 1008.4
20260509080002 63 355 0.0 0.0 0.00 0.00 0.00 88 1008.9
20260509074602 63 355 0.0 0.0 0.00 0.00 0.00 88 1008.9
20260509073100 63 355 1.7 2.6 0.00 0.00 0.00 88 1009.0
20260509071618 63 304 1.7 4.3 0.00 0.00 0.00 87 1008.6
20260509070002 63 265 0.0 1.7 0.00 0.00 0.00 86 1007.4
20260509064502 64 265 0.0 1.7 0.00 0.00 0.00 85 1007.5
20260509063059 64 265 0.0 2.6 0.00 0.00 0.00 84 1007.4
20260509061602 65 200 0.0 0.9 0.00 0.00 0.00 83 1007.3
20260509061502 65 200 0.0 0.9 0.00 0.00 0.00 83 1007.3
20260509060108 65 200 0.0 0.9 0.00 0.00 0.00 83 1007.2
20260509060003 65 200 0.0 0.9 0.00 0.00 0.00 83 1007.2
20260509054502 66 200 0.0 0.0 0.00 0.00 0.00 82 1007.1
20260509053002 66 200 0.0 0.0 0.00 0.00 0.00 82 1007.1
20260509051501 67 200 0.0 1.7 0.00 0.00 0.00 82 1007.1
20260509050007 67 200 0.0 2.6 0.00 0.00 0.00 82 1007.1